sat.trackr.live / text

‹ back to catalog

STARLINK-5007

NORAD 57365 · 2023-099AP

PAYLOAD ACTIVE UNKNOWN

§ Identity

Operator
Country
US
Launch date
2023-07-16
Launch site
AFETR
Launch vehicle
Mass (kg)
RCS (m²)

Purposes: comms

External: N2YO · Heavens-Above · Gunter

§ Orbital elements

Epoch: 2026-05-24T18:19:40.246464Z

Period
94.27 min
Inclination
43.0029°
Eccentricity
0.0001334
Mean motion
15.27577826 rev/d
Perigee alt
482.1 km
Apogee alt
484.0 km
Semi-major
6,861.2 km
B*
2.7024e-5
RAAN
172.0555°
Arg perigee
267.1398°
Mean anomaly
92.9301°
Rev number
15,783

§ Raw data

STARLINK-50071 57365U 23099AP  26144.76366026  .00000482  00000+0  27024-4 0  99942 57365  43.0029 172.0555 0001334 267.1398  92.9301 15.27577826157836

JSON: /api/v1/satellites/57365 · /tle

For live sub-satellite position, see the globe view (requires WebGL).

§ Visibility from observer

Set your observer location to see the next 7 days of passes ≥ 10°. The values pass through the URL so the page stays shareable.

No JS? Fill the form by hand. The geolocation button needs JavaScript.